Regional Weather Roundup
Issued by NWS Kansas City/Pleasant Hill, MO

Home | Current Version | Previous Version | Text Only | Print | Product List | Glossary On
Versions: 1 2 3 4 5 6 7 8 9 10 11 12 13 14 15 16 17 18 19 20 21 22 23 24 25 26 27 28 29 30 31 32 33 34 35 36 37 38 39 40 41 42 43 44 45 46 47 48 49 50
000
ASUS43 KEAX 060511
RWREAX

WEATHER ROUNDUP FOR EASTERN KANSAS AND NORTHWEST MISSOURI
NATIONAL WEATHER SERVICE KANSAS CITY/PLEASANT HILL MO
1200 AM CDT WED MAY 06 2015

KSZ040-057-103>105-MOZ028-029-037-043-060600-
...KANSAS CITY METROPOLITAN AREA...

CITY           SKY/WX    TMP DP  RH WIND       PRES   REMARKS
K.C. INTL      CLOUDY    66  62  87 E12       30.02F
K.C. DOWNTOWN  CLOUDY    68  63  84 E6        30.01F
LEES SUMMIT    CLOUDY    68  60  75 SE5       30.04F
OLATHE - IXD   CLOUDY    68  61  78 SE13      30.02F
OLATHE - OJC   CLOUDY    66  63  90 SE8       30.02F
LAWRENCE       CLOUDY    66  62  87 SW8       30.03R

$$

MOZ001>008-011>017-020>025-030>033-038>040-044>046-053-054-060600-
...NORTHERN AND CENTRAL MISSOURI...

CITY           SKY/WX    TMP DP  RH WIND       PRES   REMARKS
ST. JOSEPH     CLOUDY    65  62  90 SE6       30.01F
MOSBY          CLOUDY    68  59  73 E6        30.03F
HARRISONVILLE  CLOUDY    70  59  68 SE9       30.06S
WARRENSBURG    CLOUDY    68  57  68 SE7       30.05S
WHITEMAN AFB   CLOUDY    68  58  70 SE7       30.05F
CLINTON        CLOUDY    72  57  60 SE7       30.06F
SEDALIA        CLOUDY    67  57  70 SE7       30.08F
WARSAW         NOT AVBL
MARSHALL       CLOUDY    66  64  94 E6        30.08S
CHILLICOTHE      N/A     69  60  73 SE6       30.07F
MOBERLY        PTCLDY    66  57  72 SE6       30.11S
KIRKSVILLE     MOCLDY    68  60  75 S9        30.10S

$$

MOZ041-047>049-056>058-063>065-088>090-097-060600-
...EASTERN AND SOUTHERN MISSOURI...

CITY           SKY/WX    TMP DP  RH WIND       PRES   REMARKS
ST. LOUIS INTL PTCLDY    74  57  55 S8        30.14S
SPIRIT OF STL  CLEAR     68  58  70 SE3       30.12S
COLUMBIA       PTCLDY    66  60  81 SE6       30.11R
JEFFERSON CITY PTCLDY    64  60  87 E5        30.10R
MEXICO         MOCLDY    66  61  82 S6        30.11S
HANNIBAL       PTCLDY    72  54  53 SE6       30.11S
ROLLA          PTCLDY    65  56  72 SE9       30.11S
LEBANON        MOCLDY    66  54  63 S6        30.11F
OSAGE BEACH    PTCLDY    66  54  63 SE3       30.10S
SPRINGFIELD    PTCLDY    69  53  56 SE14      30.07F
BRANSON        CLEAR     68  54  60 SE13      30.10S
NEVADA         MOCLDY    68  55  64 SE8       30.04S
JOPLIN         CLOUDY    70  55  59 SE12      30.03S
WEST PLAINS    CLEAR     67  51  56 S9        30.14F

$$

IAZ060-094-KSZ022-034>040-054-083-096-NEZ052-066-093-060600-
...KANSAS...SOUTHEAST NEBRASKA AND IOWA...

CITY           SKY/WX    TMP DP  RH WIND       PRES   REMARKS
TOPEKA         LGT RAIN  65  64  97 SE6       30.02F FOG
MANHATTAN      CLOUDY    67  63  87 S14       29.96F
EMPORIA        LGT RAIN  64  63  96 SE8       29.98F
CHANUTE        CLOUDY    68  64  87 SE8       29.99F
WICHITA        RAIN      64  62  93 SE17G28   29.91F FOG
OMAHA          CLOUDY    69  58  67 SE17      29.98S
LINCOLN        CLOUDY    66  60  81 S16       29.97R
FALLS CITY     LGT RAIN  65  61  87 SE9       29.99F
LAMONI         CLOUDY    68  58  70 SE7       30.05F
DES MOINES     CLOUDY    68  63  84 E10       30.06S HAZE

$$




USA.gov is the U.S. government's official web portal to all federal, state and local government web resources and services.